STARLINK-1850 (47138 NORAD) Tracking and Keplerian Element Data

This shows tracking and keplerian element data for the satellite.

Feedback or suggestion? Click here.




ElementValue
Catalog47138
NameSTARLINK-1850
Epoch Orbit182
Epoch Day20.91667824
Epoch Year2021
RAAN74.1498
Inclination53.056
Eccentricity0.000203
Argument of Perigee356.981
Mean Anonmoly89.9043
Mean Motion15.62725349
Decay Rate0.00044454
L11 47138U 20088S 21020.91667824 .00044454 00000-0 48919-3 0 9994
L22 47138 53.0560 74.1498 0002030 356.9810 89.9043 15.62725349 1822

Live tracking and technical data element details for STARLINK-1850 (NORAD 47138). STARLINK-1850 can be tracked NOW for your location showing map with azimuth and elevation plus other details from your city location.

Track the satellite on the map from your city or location and see movement details for azimuth, elevation, latitude, longitude, range, height, and movement on the map or in text.







IsCatalogInMostPopularTable: catalog: 47138, numindb: 16
Update: records affected: 1



GetName: 47138 STARLINK-1850

Hit Count: updated at: Fri, 22 Jan 2021 16:45:03 GMT